This is the latest recevied weather packets stored in our database for station/object KJ6APE. If no packets are shown the sender has not sent any weather packets the latest 10 day(s).
| Time | Temp. | Humidity | Pressure | Rain* | Wind** | Luminosity | Snow |
|---|---|---|---|---|---|---|---|
| 1777507164 | 25.56° C | 39% | 1015.5 hPa | 0 mm | - | 569 W/m² | - |
| 1777506862 | 25.56° C | 39% | 1015.5 hPa | 0 mm | - | 588 W/m² | - |
| 1777506559 | 25.56° C | 39% | 1015.4 hPa | 0 mm | - | 608 W/m² | - |
| 1777506255 | 25.56° C | 36% | 1015.5 hPa | 0 mm | - | 626 W/m² | - |
| 1777505952 | 25.56° C | 36% | 1015.5 hPa | 0 mm | - | 641 W/m² | - |
| 1777505647 | 26.11° C | 34% | 1015.6 hPa | 0 mm | - | 660 W/m² | - |
| 1777505344 | 26.11° C | 30% | 1015.4 hPa | 0 mm | - | 678 W/m² | - |
| 1777505041 | 26.11° C | 27% | 1015.9 hPa | 0 mm | - | 696 W/m² | - |
| 1777504737 | 26.11° C | 28% | 1015.6 hPa | 0 mm | - | 713 W/m² | - |
| 1777504435 | 25.56° C | 30% | 1015.7 hPa | 0 mm | - | 726 W/m² | - |
| 1777504130 | 26.11° C | 29% | 1015.6 hPa | 0 mm | - | 742 W/m² | - |
| 1777503825 | 26.67° C | 29% | 1016 hPa | 0 mm | - | 758 W/m² | - |
| 1777503522 | 26.67° C | 29% | 1015.8 hPa | 0 mm | - | 768 W/m² | - |
| 1777503219 | 26.67° C | 29% | 1015.6 hPa | 0 mm | - | 785 W/m² | - |
| 1777502916 | 26.67° C | 29% | 1016 hPa | 0 mm | - | 799 W/m² | - |
| 1777502613 | 26.11° C | 30% | 1015.9 hPa | 0 mm | - | 813 W/m² | - |
| 1777502310 | 26.67° C | 31% | 1016.1 hPa | 0 mm | - | 823 W/m² | - |
| 1777502006 | 26.67° C | 31% | 1015.9 hPa | 0 mm | - | 835 W/m² | - |
| 1777501703 | 26.67° C | 31% | 1015.9 hPa | 0 mm | - | 848 W/m² | - |
| 1777501401 | 26.67° C | 29% | 1016 hPa | 0 mm | - | 863 W/m² | - |
| 1777501098 | 26.67° C | 31% | 1016.3 hPa | 0 mm | - | 875 W/m² | - |
| 1777500796 | 26.67° C | 31% | 1016.2 hPa | 0 mm | - | 890 W/m² | - |
| 1777500494 | 26.67° C | 36% | 1016.2 hPa | 0 mm | - | 898 W/m² | - |
| 1777500189 | 27.22° C | 32% | 1016.2 hPa | 0 mm | - | 904 W/m² | - |
| 1777499886 | 27.22° C | 33% | 1016.2 hPa | 0 mm | - | 917 W/m² | - |
* Rain latest hour (hover to see other rain measurements)
** Current wind speed in m/s (hover to see current wind gust speed)